Year,Month,Day,Hour,Minute,Value (Times are PST for temperature in C)
2008,10,21,00,00,6.30
2008,10,21,00,01,6.30
2008,10,21,00,02,6.20
2008,10,21,00,03,6.20
2008,10,21,00,04,6.20
2008,10,21,00,05,6.20
2008,10,21,00,06,6.10
2008,10,21,00,07,6.10
2008,10,21,00,08,6.10
2008,10,21,00,09,6.00
2008,10,21,00,10,6.00
2008,10,21,00,11,6.00
2008,10,21,00,12,5.90
2008,10,21,00,13,5.90
2008,10,21,00,14,5.90
2008,10,21,00,15,5.90
2008,10,21,00,16,5.90
2008,10,21,00,17,5.90
2008,10,21,00,18,5.80
2008,10,21,00,19,5.80
2008,10,21,00,20,5.80
2008,10,21,00,21,5.80
2008,10,21,00,22,5.80
2008,10,21,00,23,5.80
2008,10,21,00,24,5.80
2008,10,21,00,25,5.80
2008,10,21,00,26,5.70
2008,10,21,00,27,5.70
2008,10,21,00,28,5.70
2008,10,21,00,29,5.70
2008,10,21,00,30,5.70
2008,10,21,00,31,5.70
2008,10,21,00,32,5.70
2008,10,21,00,33,5.70
2008,10,21,00,34,5.70
2008,10,21,00,35,5.70
2008,10,21,00,36,5.60
2008,10,21,00,37,5.60
2008,10,21,00,38,5.60
2008,10,21,00,39,5.60
2008,10,21,00,40,5.50
2008,10,21,00,41,5.50
2008,10,21,00,42,5.60
2008,10,21,00,43,5.50
2008,10,21,00,44,5.50
2008,10,21,00,45,5.50
2008,10,21,00,46,5.50
2008,10,21,00,47,5.50
2008,10,21,00,48,5.40
2008,10,21,00,49,5.40
2008,10,21,00,50,5.50
2008,10,21,00,51,5.50
2008,10,21,00,52,5.50
2008,10,21,00,53,5.50
2008,10,21,00,54,5.50
2008,10,21,00,55,5.40
2008,10,21,00,56,5.40
2008,10,21,00,57,5.40
2008,10,21,00,58,5.40
2008,10,21,00,59,5.40
2008,10,21,01,00,5.30
2008,10,21,01,01,5.30
2008,10,21,01,02,5.30
2008,10,21,01,03,5.30
2008,10,21,01,04,5.20
2008,10,21,01,05,5.20
2008,10,21,01,06,5.10
2008,10,21,01,07,5.10
2008,10,21,01,08,5.10
2008,10,21,01,09,5.00
2008,10,21,01,10,4.90
2008,10,21,01,11,4.90
2008,10,21,01,12,4.90
2008,10,21,01,13,4.80
2008,10,21,01,14,4.80
2008,10,21,01,15,4.80
2008,10,21,01,16,4.80
2008,10,21,01,17,4.70
2008,10,21,01,18,4.70
2008,10,21,01,19,4.80
2008,10,21,01,20,4.90
2008,10,21,01,21,4.90
2008,10,21,01,22,4.90
2008,10,21,01,23,5.00
2008,10,21,01,24,5.10
2008,10,21,01,25,4.90
2008,10,21,01,26,4.90
2008,10,21,01,27,5.00
2008,10,21,01,28,5.10
2008,10,21,01,29,5.10
2008,10,21,01,30,5.10
2008,10,21,01,31,5.10
2008,10,21,01,32,5.10
2008,10,21,01,33,5.10
2008,10,21,01,34,5.10
2008,10,21,01,35,5.20
2008,10,21,01,36,5.30
2008,10,21,01,37,5.30
2008,10,21,01,38,5.40
2008,10,21,01,39,5.50
2008,10,21,01,40,5.50
2008,10,21,01,41,5.50
2008,10,21,01,42,5.50
2008,10,21,01,43,5.50
2008,10,21,01,44,5.50
2008,10,21,01,45,5.50
2008,10,21,01,46,5.50
2008,10,21,01,47,5.50
2008,10,21,01,48,5.50
2008,10,21,01,49,5.50
2008,10,21,01,50,5.50
2008,10,21,01,51,5.50
2008,10,21,01,52,5.50
2008,10,21,01,53,5.60
2008,10,21,01,54,5.60
2008,10,21,01,55,5.70
2008,10,21,01,56,5.70
2008,10,21,01,57,5.70
2008,10,21,01,58,5.50
2008,10,21,01,59,5.40
2008,10,21,02,00,5.30
2008,10,21,02,01,5.30
2008,10,21,02,02,5.40
2008,10,21,02,03,5.40
2008,10,21,02,04,5.40
2008,10,21,02,05,5.40
2008,10,21,02,06,5.30
2008,10,21,02,07,5.30
2008,10,21,02,08,5.30
2008,10,21,02,09,5.20
2008,10,21,02,10,5.10
2008,10,21,02,11,5.10
2008,10,21,02,12,5.10
2008,10,21,02,13,4.90
2008,10,21,02,14,4.90
2008,10,21,02,15,4.90
2008,10,21,02,16,4.80
2008,10,21,02,17,4.70
2008,10,21,02,18,4.60
2008,10,21,02,19,4.60
2008,10,21,02,20,4.50
2008,10,21,02,21,4.50
2008,10,21,02,22,4.40
2008,10,21,02,23,4.40
2008,10,21,02,24,4.30
2008,10,21,02,25,4.30
2008,10,21,02,26,4.20
2008,10,21,02,27,4.20
2008,10,21,02,28,4.20
2008,10,21,02,29,4.20
2008,10,21,02,30,4.20
2008,10,21,02,31,4.20
2008,10,21,02,32,4.20
2008,10,21,02,33,4.30
2008,10,21,02,34,4.30
2008,10,21,02,35,4.40
2008,10,21,02,36,4.40
2008,10,21,02,37,4.50
2008,10,21,02,38,4.50
2008,10,21,02,39,4.50
2008,10,21,02,40,4.60
2008,10,21,02,41,4.60
2008,10,21,02,42,4.60
2008,10,21,02,43,4.60
2008,10,21,02,44,4.60
2008,10,21,02,45,4.60
2008,10,21,02,46,4.60
2008,10,21,02,47,4.70
2008,10,21,02,48,4.70
2008,10,21,02,49,4.70
2008,10,21,02,50,4.70
2008,10,21,02,51,4.70
2008,10,21,02,52,4.70
2008,10,21,02,53,4.70
2008,10,21,02,54,4.80
2008,10,21,02,55,4.80
2008,10,21,02,56,4.80
2008,10,21,02,57,4.80
2008,10,21,02,58,4.80
2008,10,21,02,59,4.70
2008,10,21,03,00,4.70
2008,10,21,03,01,4.70
2008,10,21,03,02,4.60
2008,10,21,03,03,4.60
2008,10,21,03,04,4.50
2008,10,21,03,05,4.50
2008,10,21,03,06,4.50
2008,10,21,03,07,4.40
2008,10,21,03,08,4.40
2008,10,21,03,09,4.40
2008,10,21,03,10,4.40
2008,10,21,03,11,4.40
2008,10,21,03,12,4.40
2008,10,21,03,13,4.40
2008,10,21,03,14,4.40
2008,10,21,03,15,4.40
2008,10,21,03,16,4.50
2008,10,21,03,17,4.50
2008,10,21,03,18,4.50
2008,10,21,03,19,4.50
2008,10,21,03,20,4.50
2008,10,21,03,21,4.40
2008,10,21,03,22,4.40
2008,10,21,03,23,4.40
2008,10,21,03,24,4.40
2008,10,21,03,25,4.40
2008,10,21,03,26,4.30
2008,10,21,03,27,4.30
2008,10,21,03,28,4.30
2008,10,21,03,29,4.40
2008,10,21,03,30,4.40
2008,10,21,03,31,4.40
2008,10,21,03,32,4.40
2008,10,21,03,33,4.30
2008,10,21,03,34,4.30
2008,10,21,03,35,4.20
2008,10,21,03,36,4.10
2008,10,21,03,37,4.00
2008,10,21,03,38,3.90
2008,10,21,03,39,3.80
2008,10,21,03,40,3.80
2008,10,21,03,41,3.70
2008,10,21,03,42,3.60
2008,10,21,03,43,3.60
2008,10,21,03,44,3.60
2008,10,21,03,45,3.60
2008,10,21,03,46,3.50
2008,10,21,03,47,3.50
2008,10,21,03,48,3.50
2008,10,21,03,49,3.50
2008,10,21,03,50,3.50
2008,10,21,03,51,3.50
2008,10,21,03,52,3.60
2008,10,21,03,53,3.60
2008,10,21,03,54,3.60
2008,10,21,03,55,3.70
2008,10,21,03,56,3.70
2008,10,21,03,57,3.70
2008,10,21,03,58,3.80
2008,10,21,03,59,3.80
2008,10,21,04,00,3.80
2008,10,21,04,01,3.80
2008,10,21,04,02,3.80
2008,10,21,04,03,3.80
2008,10,21,04,04,3.80
2008,10,21,04,05,3.80
2008,10,21,04,06,3.80
2008,10,21,04,07,3.90
2008,10,21,04,08,3.90
2008,10,21,04,09,3.90
2008,10,21,04,10,3.90
2008,10,21,04,11,3.90
2008,10,21,04,12,3.90
2008,10,21,04,13,3.90
2008,10,21,04,14,3.80
2008,10,21,04,15,3.80
2008,10,21,04,16,3.70
2008,10,21,04,17,3.60
2008,10,21,04,18,3.50
2008,10,21,04,19,3.50
2008,10,21,04,20,3.40
2008,10,21,04,21,3.30
2008,10,21,04,22,3.30
2008,10,21,04,23,3.30
2008,10,21,04,24,3.30
2008,10,21,04,25,3.30
2008,10,21,04,26,3.30
2008,10,21,04,27,3.30
2008,10,21,04,28,3.30
2008,10,21,04,29,3.30
2008,10,21,04,30,3.30
2008,10,21,04,31,3.30
2008,10,21,04,32,3.20
2008,10,21,04,33,3.20
2008,10,21,04,34,3.30
2008,10,21,04,35,3.20
2008,10,21,04,36,3.20
2008,10,21,04,37,3.20
2008,10,21,04,38,3.20
2008,10,21,04,39,3.20
2008,10,21,04,40,3.10
2008,10,21,04,41,3.10
2008,10,21,04,42,3.10
2008,10,21,04,43,3.20
2008,10,21,04,44,3.20
2008,10,21,04,45,3.10
2008,10,21,04,46,3.10
2008,10,21,04,47,3.10
2008,10,21,04,48,3.10
2008,10,21,04,49,3.10
2008,10,21,04,50,3.10
2008,10,21,04,51,3.10
2008,10,21,04,52,3.10
2008,10,21,04,53,3.10
2008,10,21,04,54,3.10
2008,10,21,04,55,3.00
2008,10,21,04,56,2.90
2008,10,21,04,57,2.90
2008,10,21,04,58,2.90
2008,10,21,04,59,2.90
2008,10,21,05,00,2.90
2008,10,21,05,01,2.90
2008,10,21,05,02,2.90
2008,10,21,05,03,2.90
2008,10,21,05,04,3.00
2008,10,21,05,05,3.10
2008,10,21,05,06,3.10
2008,10,21,05,07,2.90
2008,10,21,05,08,2.90
2008,10,21,05,09,2.90
2008,10,21,05,10,2.90
2008,10,21,05,11,2.90
2008,10,21,05,12,2.90
2008,10,21,05,13,2.90
2008,10,21,05,14,2.90
2008,10,21,05,15,2.80
2008,10,21,05,16,2.80
2008,10,21,05,17,2.80
2008,10,21,05,18,2.80
2008,10,21,05,19,2.80
2008,10,21,05,20,2.80
2008,10,21,05,21,2.90
2008,10,21,05,22,2.90
2008,10,21,05,23,2.90
2008,10,21,05,24,2.90
2008,10,21,05,25,2.90
2008,10,21,05,26,2.90
2008,10,21,05,27,2.90
2008,10,21,05,28,2.90
2008,10,21,05,29,2.90
2008,10,21,05,30,2.90
2008,10,21,05,31,2.90
2008,10,21,05,32,3.10
2008,10,21,05,33,3.10
2008,10,21,05,34,3.10
2008,10,21,05,35,3.20
2008,10,21,05,36,3.20
2008,10,21,05,37,3.20
2008,10,21,05,38,3.30
2008,10,21,05,39,3.30
2008,10,21,05,40,3.20
2008,10,21,05,41,3.10
2008,10,21,05,42,3.10
2008,10,21,05,43,2.90
2008,10,21,05,44,2.80
2008,10,21,05,45,2.70
2008,10,21,05,46,2.70
2008,10,21,05,47,2.60
2008,10,21,05,48,2.50
2008,10,21,05,49,2.50
2008,10,21,05,50,2.50
2008,10,21,05,51,2.40
2008,10,21,05,52,2.40
2008,10,21,05,53,2.30
2008,10,21,05,54,2.30
2008,10,21,05,55,2.30
2008,10,21,05,56,2.20
2008,10,21,05,57,2.20
2008,10,21,05,58,2.20
2008,10,21,05,59,2.20
2008,10,21,06,00,2.20
2008,10,21,06,01,2.30
2008,10,21,06,02,2.30
2008,10,21,06,03,2.30
2008,10,21,06,04,2.40
2008,10,21,06,05,2.40
2008,10,21,06,06,2.40
2008,10,21,06,07,2.40
2008,10,21,06,08,2.40
2008,10,21,06,09,2.30
2008,10,21,06,10,2.30
2008,10,21,06,11,2.30
2008,10,21,06,12,2.30
2008,10,21,06,13,2.20
2008,10,21,06,14,2.20
2008,10,21,06,15,2.20
2008,10,21,06,16,2.20
2008,10,21,06,17,2.20
2008,10,21,06,18,2.20
2008,10,21,06,19,2.10
2008,10,21,06,20,2.10
2008,10,21,06,21,2.10
2008,10,21,06,22,2.10
2008,10,21,06,23,2.00
2008,10,21,06,24,2.00
2008,10,21,06,25,2.00
2008,10,21,06,26,2.00
2008,10,21,06,27,2.00
2008,10,21,06,28,2.00
2008,10,21,06,29,2.00
2008,10,21,06,30,2.10
2008,10,21,06,31,2.10
2008,10,21,06,32,2.10
2008,10,21,06,33,2.10
2008,10,21,06,34,2.10
2008,10,21,06,35,2.00
2008,10,21,06,36,2.00
2008,10,21,06,37,2.00
2008,10,21,06,38,2.00
2008,10,21,06,39,2.00
2008,10,21,06,40,2.00
2008,10,21,06,41,2.00
2008,10,21,06,42,2.10
2008,10,21,06,43,2.10
2008,10,21,06,44,2.20
2008,10,21,06,45,2.20
2008,10,21,06,46,2.30
2008,10,21,06,47,2.40
2008,10,21,06,48,2.50
2008,10,21,06,49,2.50
2008,10,21,06,50,2.50
2008,10,21,06,51,2.50
2008,10,21,06,52,2.50
2008,10,21,06,53,2.50
2008,10,21,06,54,2.60
2008,10,21,06,55,2.60
2008,10,21,06,56,2.60
2008,10,21,06,57,2.60
2008,10,21,06,58,2.60
2008,10,21,06,59,2.60
2008,10,21,07,00,2.50
2008,10,21,07,01,2.50
2008,10,21,07,02,2.50
2008,10,21,07,03,2.50
2008,10,21,07,04,2.50
2008,10,21,07,05,2.50
2008,10,21,07,06,2.50
2008,10,21,07,07,2.50
2008,10,21,07,08,2.50
2008,10,21,07,09,2.50
2008,10,21,07,10,2.50
2008,10,21,07,11,2.50
2008,10,21,07,12,2.50
2008,10,21,07,13,2.40
2008,10,21,07,14,2.40
2008,10,21,07,15,2.40
2008,10,21,07,16,2.40
2008,10,21,07,17,2.40
2008,10,21,07,18,2.30
2008,10,21,07,19,2.30
2008,10,21,07,20,2.30
2008,10,21,07,21,2.20
2008,10,21,07,22,2.20
2008,10,21,07,23,2.20
2008,10,21,07,24,2.20
2008,10,21,07,25,2.10
2008,10,21,07,26,2.10
2008,10,21,07,27,2.00
2008,10,21,07,28,2.00
2008,10,21,07,29,1.90
2008,10,21,07,30,1.90
2008,10,21,07,31,1.80
2008,10,21,07,32,1.80
2008,10,21,07,33,1.80
2008,10,21,07,34,1.80
2008,10,21,07,35,1.80
2008,10,21,07,36,1.80
2008,10,21,07,37,1.80
2008,10,21,07,38,1.80
2008,10,21,07,39,1.80
2008,10,21,07,40,1.80
2008,10,21,07,41,1.80
2008,10,21,07,42,1.80
2008,10,21,07,43,1.80
2008,10,21,07,44,1.90
2008,10,21,07,45,1.90
2008,10,21,07,46,1.90
2008,10,21,07,47,1.90
2008,10,21,07,48,1.90
2008,10,21,07,49,1.90
2008,10,21,07,50,1.90
2008,10,21,07,51,1.90
2008,10,21,07,52,1.90
2008,10,21,07,53,1.90
2008,10,21,07,54,1.90
2008,10,21,07,55,1.90
2008,10,21,07,56,1.90
2008,10,21,07,57,1.90
2008,10,21,07,58,1.90
2008,10,21,07,59,1.90
2008,10,21,08,00,1.90
2008,10,21,08,01,1.90
2008,10,21,08,02,1.90
2008,10,21,08,03,2.00
2008,10,21,08,04,2.00
2008,10,21,08,05,2.10
2008,10,21,08,06,2.10
2008,10,21,08,07,2.20
2008,10,21,08,08,2.20
2008,10,21,08,09,2.20
2008,10,21,08,10,2.20
2008,10,21,08,11,2.20
2008,10,21,08,12,2.20
2008,10,21,08,13,2.30
2008,10,21,08,14,2.30
2008,10,21,08,15,2.30
2008,10,21,08,16,2.30
2008,10,21,08,17,2.30
2008,10,21,08,18,2.30
2008,10,21,08,19,2.30
2008,10,21,08,20,2.30
2008,10,21,08,21,2.30
2008,10,21,08,22,2.30
2008,10,21,08,23,2.20
2008,10,21,08,24,2.20
2008,10,21,08,25,2.30
2008,10,21,08,26,2.30
2008,10,21,08,27,2.30
2008,10,21,08,28,2.40
2008,10,21,08,29,2.40
2008,10,21,08,30,2.50
2008,10,21,08,31,2.50
2008,10,21,08,32,2.60
2008,10,21,08,33,2.60
2008,10,21,08,34,2.70
2008,10,21,08,35,2.70
2008,10,21,08,36,2.80
2008,10,21,08,37,2.80
2008,10,21,08,38,2.90
2008,10,21,08,39,3.00
2008,10,21,08,40,3.10
2008,10,21,08,41,3.20
2008,10,21,08,42,3.30
2008,10,21,08,43,3.40
2008,10,21,08,44,3.50
2008,10,21,08,45,3.50
2008,10,21,08,46,3.60
2008,10,21,08,47,3.60
2008,10,21,08,48,3.70
2008,10,21,08,49,3.70
2008,10,21,08,50,3.80
2008,10,21,08,51,3.80
2008,10,21,08,52,3.80
2008,10,21,08,53,3.80
2008,10,21,08,54,3.80
2008,10,21,08,55,3.80
2008,10,21,08,56,3.70
2008,10,21,08,57,3.60
2008,10,21,08,58,3.50
2008,10,21,08,59,3.40
2008,10,21,09,00,3.30
2008,10,21,09,01,3.30
2008,10,21,09,02,3.30
2008,10,21,09,03,3.30
2008,10,21,09,04,3.30
2008,10,21,09,05,3.30
2008,10,21,09,06,3.30
2008,10,21,09,07,3.40
2008,10,21,09,08,3.50
2008,10,21,09,09,3.50
2008,10,21,09,10,3.60
2008,10,21,09,11,3.60
2008,10,21,09,12,3.60
2008,10,21,09,13,3.70
2008,10,21,09,14,3.70
2008,10,21,09,15,3.70
2008,10,21,09,16,3.80
2008,10,21,09,17,3.80
2008,10,21,09,18,3.90
2008,10,21,09,19,4.00
2008,10,21,09,20,4.00
2008,10,21,09,21,4.10
2008,10,21,09,22,4.20
2008,10,21,09,23,4.20
2008,10,21,09,24,4.30
2008,10,21,09,25,4.40
2008,10,21,09,26,4.50
2008,10,21,09,27,4.50
2008,10,21,09,28,4.60
2008,10,21,09,29,4.70
2008,10,21,09,30,4.80
2008,10,21,09,31,4.90
2008,10,21,09,32,4.90
2008,10,21,09,33,4.90
2008,10,21,09,34,5.10
2008,10,21,09,35,5.10
2008,10,21,09,36,5.10
2008,10,21,09,37,5.10
2008,10,21,09,38,5.10
2008,10,21,09,39,5.20
2008,10,21,09,40,5.30
2008,10,21,09,41,5.30
2008,10,21,09,42,5.30
2008,10,21,09,43,5.40
2008,10,21,09,44,5.50
2008,10,21,09,45,5.50
2008,10,21,09,46,5.60
2008,10,21,09,47,5.60
2008,10,21,09,48,5.70
2008,10,21,09,49,5.70
2008,10,21,09,50,5.90
2008,10,21,09,51,6.00
2008,10,21,09,52,6.00
2008,10,21,09,53,6.20
2008,10,21,09,54,6.20
2008,10,21,09,55,6.30
2008,10,21,09,56,6.40
2008,10,21,09,57,6.50
2008,10,21,09,58,6.60
2008,10,21,09,59,6.70
2008,10,21,10,00,6.70
2008,10,21,10,01,6.80
2008,10,21,10,02,6.90
2008,10,21,10,03,7.00
2008,10,21,10,04,7.00
2008,10,21,10,05,7.10
2008,10,21,10,06,7.20
2008,10,21,10,07,7.30
2008,10,21,10,08,7.30
2008,10,21,10,09,7.40
2008,10,21,10,10,7.50
2008,10,21,10,11,7.60
2008,10,21,10,12,7.60
2008,10,21,10,13,7.70
2008,10,21,10,14,7.80
2008,10,21,10,15,7.80
2008,10,21,10,16,7.90
2008,10,21,10,17,8.00
2008,10,21,10,18,8.00
2008,10,21,10,19,8.10
2008,10,21,10,20,8.20
2008,10,21,10,21,8.20
2008,10,21,10,22,8.30
2008,10,21,10,23,8.50
2008,10,21,10,24,8.60
2008,10,21,10,25,8.70
2008,10,21,10,26,8.70
2008,10,21,10,27,8.70
2008,10,21,10,28,8.80
2008,10,21,10,29,8.80
2008,10,21,10,30,8.90
2008,10,21,10,31,8.90
2008,10,21,10,32,8.90
2008,10,21,10,33,8.90
2008,10,21,10,34,9.00
2008,10,21,10,35,9.10
2008,10,21,10,36,9.20
2008,10,21,10,37,9.20
2008,10,21,10,38,9.20
2008,10,21,10,39,9.30
2008,10,21,10,40,9.30
2008,10,21,10,41,9.30
2008,10,21,10,42,9.30
2008,10,21,10,43,9.30
2008,10,21,10,44,9.30
2008,10,21,10,45,9.30
2008,10,21,10,46,9.30
2008,10,21,10,47,9.40
2008,10,21,10,48,9.40
2008,10,21,10,49,9.40
2008,10,21,10,50,9.40
2008,10,21,10,51,9.50
2008,10,21,10,52,9.50
2008,10,21,10,53,9.50
2008,10,21,10,54,9.60
2008,10,21,10,55,9.70
2008,10,21,10,56,9.70
2008,10,21,10,57,9.80
2008,10,21,10,58,9.80
2008,10,21,10,59,9.80
2008,10,21,11,00,9.70
2008,10,21,11,01,9.70
2008,10,21,11,02,9.70
2008,10,21,11,03,9.70
2008,10,21,11,04,9.80
2008,10,21,11,05,9.90
2008,10,21,11,06,9.90
2008,10,21,11,07,9.90
2008,10,21,11,08,9.90
2008,10,21,11,09,9.90
2008,10,21,11,10,9.80
2008,10,21,11,11,9.80
2008,10,21,11,12,9.90
2008,10,21,11,13,9.90
2008,10,21,11,14,9.90
2008,10,21,11,15,9.90
2008,10,21,11,16,9.90
2008,10,21,11,17,10.10
2008,10,21,11,18,10.10
2008,10,21,11,19,10.20
2008,10,21,11,20,10.20
2008,10,21,11,21,10.30
2008,10,21,11,22,10.30
2008,10,21,11,23,10.30
2008,10,21,11,24,10.30
2008,10,21,11,25,10.30
2008,10,21,11,26,10.30
2008,10,21,11,27,10.30
2008,10,21,11,28,10.20
2008,10,21,11,29,10.20
2008,10,21,11,30,10.20
2008,10,21,11,31,10.20
2008,10,21,11,32,10.20
2008,10,21,11,33,10.20
2008,10,21,11,34,10.30
2008,10,21,11,35,10.30
2008,10,21,11,36,10.30
2008,10,21,11,37,10.30
2008,10,21,11,38,10.40
2008,10,21,11,39,10.40
2008,10,21,11,40,10.40
2008,10,21,11,41,10.40
2008,10,21,11,42,10.40
2008,10,21,11,43,10.40
2008,10,21,11,44,10.40
2008,10,21,11,45,10.50
2008,10,21,11,46,10.60
2008,10,21,11,47,10.40
2008,10,21,11,48,10.40
2008,10,21,11,49,10.40
2008,10,21,11,50,10.40
2008,10,21,11,51,10.50
2008,10,21,11,52,10.60
2008,10,21,11,53,10.60
2008,10,21,11,54,10.60
2008,10,21,11,55,10.60
2008,10,21,11,56,10.60
2008,10,21,11,57,10.60
2008,10,21,11,58,10.60
2008,10,21,11,59,10.60
2008,10,21,12,00,10.70
2008,10,21,12,01,10.60
2008,10,21,12,02,10.60
2008,10,21,12,03,10.60
2008,10,21,12,04,10.60
2008,10,21,12,05,10.60
2008,10,21,12,06,10.60
2008,10,21,12,07,10.60
2008,10,21,12,08,10.60
2008,10,21,12,09,10.60
2008,10,21,12,10,10.60
2008,10,21,12,11,10.60
2008,10,21,12,12,10.60
2008,10,21,12,13,10.70
2008,10,21,12,14,10.60
2008,10,21,12,15,10.60
2008,10,21,12,16,10.70
2008,10,21,12,17,10.70
2008,10,21,12,18,10.70
2008,10,21,12,19,10.70
2008,10,21,12,20,10.70
2008,10,21,12,21,10.80
2008,10,21,12,22,10.80
2008,10,21,12,23,10.90
2008,10,21,12,24,10.90
2008,10,21,12,25,11.00
2008,10,21,12,26,11.10
2008,10,21,12,27,11.10
2008,10,21,12,28,11.10
2008,10,21,12,29,11.10
2008,10,21,12,30,11.20
2008,10,21,12,31,11.20
2008,10,21,12,32,11.20
2008,10,21,12,33,11.20
2008,10,21,12,34,11.20
2008,10,21,12,35,11.30
2008,10,21,12,36,11.30
2008,10,21,12,37,11.30
2008,10,21,12,38,11.30
2008,10,21,12,39,11.30
2008,10,21,12,40,11.40
2008,10,21,12,41,11.40
2008,10,21,12,42,11.40
2008,10,21,12,43,11.40
2008,10,21,12,44,11.40
2008,10,21,12,45,11.50
2008,10,21,12,46,11.60
2008,10,21,12,47,11.60
2008,10,21,12,48,11.60
2008,10,21,12,49,11.60
2008,10,21,12,50,11.60
2008,10,21,12,51,11.60
2008,10,21,12,52,11.70
2008,10,21,12,53,11.80
2008,10,21,12,54,11.80
2008,10,21,12,55,11.80
2008,10,21,12,56,11.80
2008,10,21,12,57,11.80
2008,10,21,12,58,11.80
2008,10,21,12,59,11.80
2008,10,21,13,00,11.70
2008,10,21,13,01,11.60
2008,10,21,13,02,11.60
2008,10,21,13,03,11.60
2008,10,21,13,04,11.70
2008,10,21,13,05,11.70
2008,10,21,13,06,11.70
2008,10,21,13,07,11.80
2008,10,21,13,08,11.80
2008,10,21,13,09,11.80
2008,10,21,13,10,11.80
2008,10,21,13,11,11.80
2008,10,21,13,12,11.80
2008,10,21,13,13,11.80
2008,10,21,13,14,11.80
2008,10,21,13,15,11.90
2008,10,21,13,16,11.80
2008,10,21,13,17,11.90
2008,10,21,13,18,11.90
2008,10,21,13,19,11.90
2008,10,21,13,20,12.00
2008,10,21,13,21,11.90
2008,10,21,13,22,11.90
2008,10,21,13,23,12.00
2008,10,21,13,24,12.00
2008,10,21,13,25,12.10
2008,10,21,13,26,12.20
2008,10,21,13,27,12.20
2008,10,21,13,28,12.10
2008,10,21,13,29,12.10
2008,10,21,13,30,12.00
2008,10,21,13,31,12.00
2008,10,21,13,32,11.90
2008,10,21,13,33,11.90
2008,10,21,13,34,11.90
2008,10,21,13,35,11.90
2008,10,21,13,36,11.90
2008,10,21,13,37,11.90
2008,10,21,13,38,11.90
2008,10,21,13,39,11.90
2008,10,21,13,40,12.00
2008,10,21,13,41,12.10
2008,10,21,13,42,12.00
2008,10,21,13,43,12.00
2008,10,21,13,44,12.00
2008,10,21,13,45,12.00
2008,10,21,13,46,12.00
2008,10,21,13,47,11.90
2008,10,21,13,48,11.80
2008,10,21,13,49,11.80
2008,10,21,13,50,11.80
2008,10,21,13,51,11.80
2008,10,21,13,52,11.80
2008,10,21,13,53,11.80
2008,10,21,13,54,11.80
2008,10,21,13,55,11.80
2008,10,21,13,56,11.80
2008,10,21,13,57,11.90
2008,10,21,13,58,11.90
2008,10,21,13,59,12.00
2008,10,21,14,00,12.00
2008,10,21,14,01,12.00
2008,10,21,14,02,12.10
2008,10,21,14,03,12.10
2008,10,21,14,04,12.20
2008,10,21,14,05,12.20
2008,10,21,14,06,12.20
2008,10,21,14,07,12.10
2008,10,21,14,08,12.00
2008,10,21,14,09,12.00
2008,10,21,14,10,12.00
2008,10,21,14,11,11.90
2008,10,21,14,12,11.80
2008,10,21,14,13,11.80
2008,10,21,14,14,11.80
2008,10,21,14,15,11.80
2008,10,21,14,16,11.80
2008,10,21,14,17,11.80
2008,10,21,14,18,11.80
2008,10,21,14,19,11.80
2008,10,21,14,20,11.70
2008,10,21,14,21,11.70
2008,10,21,14,22,11.60
2008,10,21,14,23,11.60
2008,10,21,14,24,11.60
2008,10,21,14,25,11.70
2008,10,21,14,26,11.80
2008,10,21,14,27,11.80
2008,10,21,14,28,11.80
2008,10,21,14,29,11.80
2008,10,21,14,30,11.80
2008,10,21,14,31,11.80
2008,10,21,14,32,11.80
2008,10,21,14,33,11.80
2008,10,21,14,34,11.80
2008,10,21,14,35,11.80
2008,10,21,14,36,11.80
2008,10,21,14,37,11.80
2008,10,21,14,38,11.80
2008,10,21,14,39,11.80
2008,10,21,14,40,11.70
2008,10,21,14,41,11.70
2008,10,21,14,42,11.70
2008,10,21,14,43,11.70
2008,10,21,14,44,11.70
2008,10,21,14,45,11.70
2008,10,21,14,46,11.70
2008,10,21,14,47,11.70
2008,10,21,14,48,11.70
2008,10,21,14,49,11.70
2008,10,21,14,50,11.70
2008,10,21,14,51,11.60
2008,10,21,14,52,11.60
2008,10,21,14,53,11.60
2008,10,21,14,54,11.60
2008,10,21,14,55,11.60
2008,10,21,14,56,11.70
2008,10,21,14,57,11.70
2008,10,21,14,58,11.70
2008,10,21,14,59,11.70
2008,10,21,15,00,11.80
2008,10,21,15,01,11.80
2008,10,21,15,02,11.80
2008,10,21,15,03,11.70
2008,10,21,15,04,11.60
2008,10,21,15,05,11.60
2008,10,21,15,06,11.60
2008,10,21,15,07,11.60
2008,10,21,15,08,11.60
2008,10,21,15,09,11.60
2008,10,21,15,10,11.60
2008,10,21,15,11,11.60
2008,10,21,15,12,11.60
2008,10,21,15,13,11.60
2008,10,21,15,14,11.60
2008,10,21,15,15,11.50
2008,10,21,15,16,11.40
2008,10,21,15,17,11.40
2008,10,21,15,18,11.40
2008,10,21,15,19,11.40
2008,10,21,15,20,11.50
2008,10,21,15,21,11.60
2008,10,21,15,22,11.60
2008,10,21,15,23,11.50
2008,10,21,15,24,11.40
2008,10,21,15,25,11.40
2008,10,21,15,26,11.40
2008,10,21,15,27,11.50
2008,10,21,15,28,11.60
2008,10,21,15,29,11.50
2008,10,21,15,30,11.40
2008,10,21,15,31,11.40
2008,10,21,15,32,11.40
2008,10,21,15,33,11.40
2008,10,21,15,34,11.50
2008,10,21,15,35,11.60
2008,10,21,15,36,11.60
2008,10,21,15,37,11.60
2008,10,21,15,38,11.60
2008,10,21,15,39,11.60
2008,10,21,15,40,11.60
2008,10,21,15,41,11.60
2008,10,21,15,42,11.60
2008,10,21,15,43,11.60
2008,10,21,15,44,11.60
2008,10,21,15,45,11.60
2008,10,21,15,46,11.60
2008,10,21,15,47,11.60
2008,10,21,15,48,11.60
2008,10,21,15,49,11.60
2008,10,21,15,50,11.60
2008,10,21,15,51,11.60
2008,10,21,15,52,11.50
2008,10,21,15,53,11.40
2008,10,21,15,54,11.40
2008,10,21,15,55,11.40
2008,10,21,15,56,11.40
2008,10,21,15,57,11.40
2008,10,21,15,58,11.40
2008,10,21,15,59,11.40
2008,10,21,16,00,11.40
2008,10,21,16,01,11.40
2008,10,21,16,02,11.40
2008,10,21,16,03,11.40
2008,10,21,16,04,11.40
2008,10,21,16,05,11.40
2008,10,21,16,06,11.40
2008,10,21,16,07,11.30
2008,10,21,16,08,11.30
2008,10,21,16,09,11.30
2008,10,21,16,10,11.40
2008,10,21,16,11,11.40
2008,10,21,16,12,11.40
2008,10,21,16,13,11.30
2008,10,21,16,14,11.40
2008,10,21,16,15,11.40
2008,10,21,16,16,11.40
2008,10,21,16,17,11.40
2008,10,21,16,18,11.40
2008,10,21,16,19,11.40
2008,10,21,16,20,11.40
2008,10,21,16,21,11.40
2008,10,21,16,22,11.40
2008,10,21,16,23,11.40
2008,10,21,16,24,11.40
2008,10,21,16,25,11.40
2008,10,21,16,26,11.40
2008,10,21,16,27,11.40
2008,10,21,16,28,11.40
2008,10,21,16,29,11.40
2008,10,21,16,30,11.40
2008,10,21,16,31,11.40
2008,10,21,16,32,11.40
2008,10,21,16,33,11.40
2008,10,21,16,34,11.40
2008,10,21,16,35,11.40
2008,10,21,16,36,11.40
2008,10,21,16,37,11.40
2008,10,21,16,38,11.40
2008,10,21,16,39,11.40
2008,10,21,16,40,11.40
2008,10,21,16,41,11.40
2008,10,21,16,42,11.30
2008,10,21,16,43,11.30
2008,10,21,16,44,11.30
2008,10,21,16,45,11.30
2008,10,21,16,46,11.20
2008,10,21,16,47,11.20
2008,10,21,16,48,11.20
2008,10,21,16,49,11.20
2008,10,21,16,50,11.10
2008,10,21,16,51,11.10
2008,10,21,16,52,11.20
2008,10,21,16,53,11.10
2008,10,21,16,54,11.10
2008,10,21,16,55,11.10
2008,10,21,16,56,11.10
2008,10,21,16,57,11.10
2008,10,21,16,58,11.10
2008,10,21,16,59,11.10
2008,10,21,17,00,11.10
2008,10,21,17,01,11.10
2008,10,21,17,02,11.10
2008,10,21,17,03,11.10
2008,10,21,17,04,11.10
2008,10,21,17,05,11.10
2008,10,21,17,06,11.10
2008,10,21,17,07,11.10
2008,10,21,17,08,11.00
2008,10,21,17,09,10.90
2008,10,21,17,10,10.90
2008,10,21,17,11,10.90
2008,10,21,17,12,10.90
2008,10,21,17,13,10.90
2008,10,21,17,14,10.90
2008,10,21,17,15,10.90
2008,10,21,17,16,10.90
2008,10,21,17,17,10.90
2008,10,21,17,18,10.90
2008,10,21,17,19,10.90
2008,10,21,17,20,10.90
2008,10,21,17,21,10.90
2008,10,21,17,22,10.90
2008,10,21,17,23,10.90
2008,10,21,17,24,10.90
2008,10,21,17,25,10.90
2008,10,21,17,26,10.90
2008,10,21,17,27,10.90
2008,10,21,17,28,10.90
2008,10,21,17,29,10.90
2008,10,21,17,30,10.90
2008,10,21,17,31,10.90
2008,10,21,17,32,10.90
2008,10,21,17,33,10.90
2008,10,21,17,34,10.90
2008,10,21,17,35,10.90
2008,10,21,17,36,10.90
2008,10,21,17,37,10.90
2008,10,21,17,38,10.90
2008,10,21,17,39,10.80
2008,10,21,17,40,10.80
2008,10,21,17,41,10.80
2008,10,21,17,42,10.80
2008,10,21,17,43,10.80
2008,10,21,17,44,10.70
2008,10,21,17,45,10.70
2008,10,21,17,46,10.70
2008,10,21,17,47,10.70
2008,10,21,17,48,10.70